INMARSAT 4-F1

导读

INMARSAT 4-F1是国际海事卫星组织(Inmarsat)的第四代海事卫星,于北京时间2005年3月11日发射升空。卫星定点后主要为亚太区域提供L波段通信覆盖,承担海事遇险安全、航空安全通信等关键服务,支持全球移动卫星通信网络运行。2023年4月该星曾出现故障,经应急处置后服务逐步恢复,目前仍在轨保障相关通信业务。

Basic Information
目录编号:
28628
目录名称:
INMARSAT 4-F1
国际标识:
2005-009A
轨道中心:
EARTH
卫星名称:
INMARSAT 4-F1
卫星全名:
--
卫星状态:
在轨 (已飞行7854 天)
发射日期:
2005-03-11 UTC
国别 :
(Inmarsat)
星等 :
--
This satellite is enrolled in the Space Conjunction Data Service (SCDS) and the current flight risk assessment level is: No High Risk
Orbit Information
数据来源 国际轨道数据 AOE轨道数据
星历时间 2026-09-11T01:41:19+0800
13小时前
查看轨道信息
2026-09-07T00:00:00+0800
4天前
查看轨道信息
半长轴 42164.588km 42164.56km
偏心率 0.0002487 0.0002688
轨道倾角 5.287° 5.282°
近地点辐角 139.131° 137.279°
升交点赤经 42.810° 42.810°
平近点角 251.274° 223.786°
近地点 35775.964km 35775.089km
远地点 35796.938km 35797.757km
周期 1436.090分钟 1436.088分钟
每日圈数 1.002723 1.002724
Detailed Information
使用方式:
暂无
2D Orbit Map
3D Orbit Map
Orbit Altitude Analysis Chart
Orbit Inclination Analysis Chart
Orbit Comprehensive Analysis Chart
View Comprehensive Chart
Miss Distance Evolution Trend with All Objects
Collision Probability Evolution Trend with All Objects